De Soto, IL

11:08 PM CDT on September 24, 2016 (GMT -0500)
Southern Illinois

Weather History for KMDH - November, 2013

Change the Weather History Date:

Saturday, November 9, 2013

  Actual Average Record
Temperature  
Mean Temperature 54 °F -  
Max Temperature 64 °F 59 °F 78 °F (1975)
Min Temperature 43 °F 36 °F 10 °F (1991)
Degree Days  
Heating Degree Days 12    
Growing Degree Days 4 (Base 50)    
Moisture  
Dew Point 40 °F    
Average Humidity 65    
Maximum Humidity 93    
Minimum Humidity 39    
Precipitation  
Precipitation 0.00 in - - ()
Sea Level Pressure  
Sea Level Pressure 30.17 in    
Wind  
Wind Speed 9 mph (SSW)    
Max Wind Speed 21 mph    
Max Gust Speed 30 mph    
Visibility 10 miles    
Events      
Averages and records for this station are not official NWS values.
T = Trace of Precipitation, MM = Missing Value Source: NWS Daily Summary

Daily Weather History Graph

Daily Weather History Graph

Search for Another Location

Airport or City:

Trip Planner

Search our weather history database for the weather conditions in past years. The results will help you decide how hot, cold, wet, or windy it might be!

Date:

Astronomy

Nov. 09, 2013 Rise Set
Actual Time 6:31 AM CST 4:50 PM CST
Civil Twilight 6:03 AM CST 5:17 PM CST
Nautical Twilight 5:32 AM CST 5:49 PM CST
Astronomical Twilight 5:01 AM CST 6:20 PM CST
Moon 12:08 PM CST (11/9) 11:18 PM CST (11/9)
Length of Visible Light 11h 14m
Length of Day
10h 19m
Waxing Crescent, 44% of the Moon is Illuminated
Nov 9
Waxing Crescent
Nov 9
First Quarter
Nov 17
Full
Nov 25
Last Quarter
Dec 2
New

Hourly Weather History & Observations

Time (CST) Temp. Windchill Dew Point Humidity Pressure Visibility Wind Dir Wind Speed Gust Speed Precip Events Conditions
12:52 AM 43.0 °F 38.8 °F 32.0 °F 65% 30.17 in 10.0 mi South 6.9 mph - N/A   Clear
1:52 AM 43.0 °F 38.2 °F 33.1 °F 68% 30.16 in 10.0 mi South 8.1 mph - N/A   Clear
2:52 AM 46.0 °F 41.4 °F 35.1 °F 66% 30.16 in 10.0 mi SSW 9.2 mph - N/A   Clear
3:52 AM 46.0 °F 41.4 °F 36.0 °F 68% 30.15 in 10.0 mi SSW 9.2 mph - N/A   Clear
4:52 AM 45.0 °F 39.3 °F 36.0 °F 71% 30.15 in 10.0 mi SSW 11.5 mph - N/A   Clear
5:52 AM 44.1 °F 39.0 °F 36.0 °F 73% 30.16 in 10.0 mi SSW 9.2 mph - N/A   Clear
6:52 AM 43.0 °F 37.2 °F 37.0 °F 80% 30.17 in 10.0 mi SSW 10.4 mph - N/A   Clear
7:52 AM 48.0 °F - 37.9 °F 68% 30.18 in 10.0 mi SSW 13.8 mph - N/A   Clear
8:52 AM 53.1 °F - 39.0 °F 59% 30.19 in 10.0 mi SSW 13.8 mph - N/A   Clear
9:52 AM 57.0 °F - 39.0 °F 51% 30.19 in 10.0 mi SW 20.7 mph 29.9 mph N/A   Clear
10:52 AM 60.1 °F - 39.9 °F 47% 30.17 in 10.0 mi SW 13.8 mph 23.0 mph N/A   Clear
11:52 AM 62.1 °F - 41.0 °F 46% 30.15 in 10.0 mi SW 17.3 mph - N/A   Clear
12:52 PM 63.0 °F - 41.0 °F 45% 30.14 in 10.0 mi WSW 8.1 mph 20.7 mph N/A   Clear
1:52 PM 64.9 °F - 41.0 °F 42% 30.12 in 9.0 mi SW 6.9 mph - N/A   Clear
2:52 PM 64.9 °F - 39.0 °F 39% 30.12 in 10.0 mi West 11.5 mph - N/A   Clear
3:52 PM 64.0 °F - 39.9 °F 41% 30.14 in 10.0 mi West 5.8 mph - N/A   Clear
4:52 PM 55.9 °F - 42.1 °F 60% 30.14 in 10.0 mi SSW 6.9 mph - N/A   Clear
5:52 PM 54.0 °F - 44.1 °F 69% 30.17 in 10.0 mi SSW 9.2 mph - N/A   Clear
6:52 PM 53.1 °F - 44.1 °F 71% 30.19 in 10.0 mi SW 5.8 mph - N/A   Clear
7:52 PM 52.0 °F - 45.0 °F 77% 30.20 in 10.0 mi SSW 5.8 mph - N/A   Clear
8:52 PM 50.0 °F - 44.1 °F 80% 30.21 in 10.0 mi SW 5.8 mph - N/A   Clear
9:52 PM 48.0 °F - 43.0 °F 83% 30.22 in 10.0 mi SSW 5.8 mph - N/A   Clear
10:52 PM 45.0 °F 43.5 °F 42.1 °F 90% 30.22 in 10.0 mi SSW 3.5 mph - N/A   Clear
11:52 PM 44.1 °F 42.5 °F 42.1 °F 93% 30.23 in 10.0 mi SSW 3.5 mph - N/A   Clear